TimePDT,TemperatureF,Dew PointF,Humidity,Sea Level PressureIn,VisibilityMPH,Wind Direction,Wind SpeedMPH,Gust SpeedMPH,PrecipitationIn,Events,Conditions,WindDirDegrees,DateUTC
12:52 AM,57.9,9.0,14,30.28,10.0,NNE,10.4,-,N/A,,Clear,30,2014-03-16 07:52:00
1:52 AM,59.0,7.0,13,30.28,10.0,NNE,13.8,-,N/A,,Clear,30,2014-03-16 08:52:00
2:52 AM,50.0,10.0,20,30.28,10.0,East,6.9,-,N/A,,Clear,80,2014-03-16 09:52:00
3:52 AM,54.0,9.0,17,30.27,10.0,NNE,11.5,-,N/A,,Clear,20,2014-03-16 10:52:00
4:52 AM,53.1,9.0,17,30.26,10.0,NNE,17.3,-,N/A,,Clear,30,2014-03-16 11:52:00
5:52 AM,51.1,9.0,18,30.28,10.0,NE,6.9,-,N/A,,Clear,50,2014-03-16 12:52:00
6:52 AM,52.0,9.0,18,30.29,10.0,NE,11.5,-,N/A,,Clear,40,2014-03-16 13:52:00
7:52 AM,55.0,10.0,17,30.31,10.0,East,9.2,-,N/A,,Clear,100,2014-03-16 14:52:00
8:52 AM,61.0,10.0,13,30.32,10.0,NNE,12.7,-,N/A,,Clear,30,2014-03-16 15:52:00
9:52 AM,64.0,10.0,12,30.32,10.0,NNE,17.3,-,N/A,,Clear,30,2014-03-16 16:52:00
10:52 AM,69.1,8.1,9,30.29,10.0,North,5.8,-,N/A,,Clear,10,2014-03-16 17:52:00
11:52 AM,72.0,7.0,8,30.27,10.0,NE,3.5,-,N/A,,Clear,40,2014-03-16 18:52:00
12:52 PM,73.9,6.1,7,30.23,10.0,Calm,Calm,-,N/A,,Clear,0,2014-03-16 19:52:00
1:52 PM,73.9,7.0,8,30.19,10.0,Variable,5.8,-,N/A,,Clear,0,2014-03-16 20:52:00
2:52 PM,75.9,8.1,7,30.17,10.0,WSW,10.4,-,N/A,,Clear,240,2014-03-16 21:52:00
3:52 PM,75.9,7.0,7,30.14,10.0,WSW,10.4,-,N/A,,Clear,250,2014-03-16 22:52:00
4:52 PM,75.9,6.1,7,30.10,10.0,WSW,11.5,-,N/A,,Clear,240,2014-03-16 23:52:00
5:52 PM,73.9,3.9,7,30.09,10.0,WSW,10.4,-,N/A,,Clear,240,2014-03-17 00:52:00
6:52 PM,69.1,3.9,8,30.08,10.0,West,5.8,-,N/A,,Clear,260,2014-03-17 01:52:00
7:52 PM,63.0,5.0,10,30.08,10.0,North,3.5,-,N/A,,Clear,350,2014-03-17 02:52:00
8:52 PM,57.9,9.0,14,30.07,10.0,NNE,6.9,-,N/A,,Clear,20,2014-03-17 03:52:00
9:52 PM,57.0,9.0,15,30.06,10.0,North,9.2,-,N/A,,Clear,10,2014-03-17 04:52:00
10:52 PM,55.9,10.9,17,30.03,10.0,NNE,9.2,-,N/A,,Clear,20,2014-03-17 05:52:00
11:52 PM,55.0,12.0,18,30.00,10.0,NNE,6.9,-,N/A,,Clear,30,2014-03-17 06:52:00